(52872) Okyrhoe (2008)

Japanese version
Home page
Updated on September 3, 2011

---------------------------------------------------------------------

* Profile

Designation (52872) 1998 SG35
Discovery Date September 19, 1998
Magnitude 21.0 mag
Discoverer J. V. Scotti, J. Montani, J. Larsen, A. Gleason, N. Danzl (Kitt Peak)

* Orbital Elements

The following orbital elements are taken from MPO198790

Epoch 2011 Aug. 27.0 TT = JDT 2455800.5                 MPC
M  53.80064              (2000.0)            P               Q
n   0.04093134     Peri.  337.51372     -0.87356615     -0.48564352
a   8.3387073      Node   173.16365     +0.47744962     -0.86789816
e   0.3058090      Incl.   15.66144     +0.09446719     -0.10441816
P  24.1            H   10.9           G   0.15           U   0
From 424 observations at 13 oppositions, 1998-2011, mean residual 0".50.

* Magnitudes Graph

        H = 11.0  G = 0.15

---------------------------------------------------------------------

The orbital elements are published at the MPC Ephemerides and Orbital Elements.
The magnitudes graphs are made with Comet for Windows.

---------------------------------------------------------------------

Copyright(C) Seiichi Yoshida (comet@aerith.net). All rights reserved.